#timestamp,LO_Frequency,Hit,StdDev 
1673564415.4,286047002.8,N
1673564435.3,286047000.5,N
1673564455.1,286046999.9,N
1673564456.0,286046999.9,N
1673564475.8,286046999.9,N
1673564495.7,286047000.2,N
1673564515.5,286047000.3,N
1673564535.3,286047002.5,N
1673564555.2,286047001.6,N
1673564575.0,286047002.0,N
1673564575.9,286047002.0,N
1673564595.8,286047001.4,N
1673564615.6,286047001.0,N
1673564635.4,286047000.8,N
1673564655.3,286046998.3,N
1673564675.1,286047000.3,N
1673564695.8,286047000.2,N
1673564715.7,286047002.0,N
1673564735.5,286047002.1,N
1673564755.4,286047001.8,N
1673564775.2,286047002.4,N
1673564795.0,286046999.8,N
1673564795.9,286046999.8,N
1673564815.8,286046999.8,N
1673564835.6,286046999.8,N
1673564855.4,286047000.1,N
1673564875.3,286047002.6,N
1673564895.1,286047002.8,N
1673564915.9,286047002.5,N
1673564935.7,286047001.8,N
1673564955.5,286047003.8,Y
1673564975.4,286047001.7,P
1673564995.2,286047002.2,P
1673565015.0,286047004.1,P
1673565016.0,286047004.1,Y
1673565035.8,286046999.7,P
1673565055.6,286047000.4,N
1673565075.5,286047000.9,N
1673565095.3,286047000.1,N
1673565115.1,286047000.3,N
1673565135.9,286046999.3,N
1673565155.7,286046999.5,N
1673565175.6,286046999.3,N
1673565195.4,286046998.4,N
1673565215.2,286046998.7,N
1673565235.1,286046998.6,N
1673565236.0,286046998.6,N
1673565255.8,286046996.5,Y
1673565275.6,286046998.4,P
1673565295.5,286047000.7,N
1673565315.3,286047000.5,N
1673565335.2,286046998.6,N
1673565355.9,286046999.0,N
1673565375.7,286046999.6,N
1673565395.6,286046996.8,Y
1673565415.4,286046999.4,P
1673565435.3,286046998.3,P
1673565455.1,286047000.9,N
1673565456.0,286047000.9,N
1673565475.8,286046999.9,N
1673565495.7,286047000.1,N
1673565515.1,286047001.9,N
1673565535.8,286047000.9,N
1673565555.7,286047001.2,N
1673565575.5,286046996.6,Y
1673565595.4,286046997.2,P
1673565615.2,286046999.5,N
1673565635.0,286046998.3,N
1673565635.9,286046998.3,N
1673565655.8,286047000.7,N
1673565675.6,286046999.9,N
1673565695.5,286047000.2,N
1673565715.3,286046998.3,N
1673565735.1,286046996.6,Y
1673565755.9,286046998.3,P
1673565775.7,286046999.9,N
1673565795.5,286047000.7,N
1673565815.4,286047002.5,N
1673565835.2,286047000.6,N
1673565855.1,286047002.4,N
1673565856.0,286047002.4,N
1673565875.8,286047000.9,N
1673565895.6,286047002.8,N
1673565915.5,286047002.7,N
1673565935.3,286047002.1,N
1673565955.2,286047001.3,N
1673565975.9,286047001.9,N
1673565995.7,286047002.0,N
1673566015.6,286047002.1,N
1673566035.4,286047002.0,N
1673566055.3,286047000.1,N
1673566075.1,286047000.9,N
1673566076.0,286047000.9,N
1673566095.8,286047004.1,Y
1673566115.7,286047002.1,P
1673566135.5,286047001.5,P
1673566155.4,286047001.8,P
1673566175.2,286047002.5,Y
1673566195.0,286047000.9,P
1673566195.9,286047000.9,N
1673566215.8,286046998.4,P
1673566235.6,286046998.1,N
1673566255.5,286047001.2,N
1673566275.3,286046998.3,N
1673566295.1,286047001.0,N
1673566315.9,286046999.3,N
1673566335.7,286046996.5,N
1673566355.5,286046999.4,N
1673566375.4,286046998.1,N
1673566395.2,286046999.5,N
1673566415.0,286046998.1,N
1673566416.0,286046998.1,N
1673566435.8,286047000.8,N
1673566455.6,286047000.6,N
1673566475.5,286046998.1,N
1673566495.3,286046998.1,N
1673566515.1,286046999.5,N
1673566535.9,286046998.6,N
1673566555.7,286047000.9,N
1673566575.6,286046998.5,N
1673566595.4,286046996.8,N
1673566615.2,286046997.3,N
1673566635.1,286046999.0,N
1673566636.0,286046999.0,N
1673566655.8,286046996.9,N
1673566675.7,286046998.7,N
1673566695.5,286046996.5,N
1673566715.4,286046997.2,N
1673566735.2,286046997.5,N
1673566755.0,286046996.7,N
1673566755.9,286046996.7,N
1673566775.8,286046998.9,N
1673566795.6,286047000.8,N
1673566815.4,286046999.1,N
1673566835.3,286047000.9,N
1673566855.1,286047000.2,N
1673566875.9,286046999.1,N
1673566895.7,286046996.3,N
1673566915.5,286046995.2,Y
1673566935.4,286046997.2,P
1673566955.2,286046998.3,N
1673566975.1,286046998.7,N
1673566976.0,286046998.7,N
1673566995.8,286046998.9,N
1673567015.6,286046999.4,N
1673567035.5,286047001.1,N
1673567055.3,286046998.4,N
1673567075.1,286046998.4,N
1673567095.9,286046999.3,N
1673567115.7,286046998.9,N
1673567135.5,286047000.6,N
1673567155.4,286046998.6,N
1673567175.2,286046998.7,N
1673567195.1,286047000.7,N
1673567196.0,286047000.7,N
1673567215.8,286046999.8,N
1673567235.6,286047001.6,N
1673567255.5,286047000.6,N
1673567275.3,286046999.7,N
1673567295.1,286047002.3,N
1673567315.9,286047000.1,N
1673567335.7,286047001.8,N
1673567355.6,286047004.3,Y
1673567375.4,286046999.7,P
1673567395.2,286047001.9,P
1673567415.1,286047002.5,N
1673567416.0,286047002.5,N
1673567435.8,286047002.2,N
1673567455.7,286047002.6,N
1673567475.5,286047003.1,N
1673567495.3,286047005.8,Y
1673567515.2,286047003.9,P
1673567535.0,286047002.8,N
1673567535.9,286047002.8,P
1673567555.7,286047000.0,N
1673567575.6,286047000.3,N
1673567595.4,286047000.7,N
1673567615.3,286047002.8,N
1673567635.1,286047000.9,N
1673567636.0,286047000.9,N
1673567655.8,286047000.7,N
1673567675.7,286047000.6,N
1673567695.5,286047000.2,N
1673567715.3,286046999.7,N
1673567735.2,286047001.9,N
1673567755.0,286047001.0,N
1673567755.9,286047001.0,N
1673567775.8,286047001.0,N
1673567795.6,286047001.2,N
1673567815.4,286046998.1,N
1673567835.3,286047000.6,N
1673567855.1,286046999.7,N
1673567875.8,286047000.8,N
1673567895.7,286047000.6,N
1673567915.5,286046999.7,N
1673567935.4,286047002.5,N
1673567955.2,286047002.2,N
1673567975.0,286046999.9,N
1673567975.9,286046999.9,N
1673567995.8,286046999.7,N
